Weather History for Alva, OK

Change the Weather History Date:

Friday, February 15, 2013

  Actual Average Record
Temperature  
Mean Temperature 33 °F -  
Max Temperature 42 °F 49 °F 78 °F (1954)
Min Temperature 24 °F 25 °F 8 °F (2007)
Degree Days  
Heating Degree Days 32    
Moisture  
Dew Point 21 °F    
Average Humidity 64    
Maximum Humidity 100    
Minimum Humidity 39    
Precipitation  
Precipitation 0.18 in - - ()
Sea Level Pressure  
Sea Level Pressure 30.38 in    
Wind  
Wind Speed 11 mph (NNW)    
Max Wind Speed 20 mph    
Max Gust Speed 23 mph    
Visibility 9 miles    
Events Snow    
Averages and records for this station are not official NWS values.
T = Trace of Precipitation, MM = Missing Value Source: NWS Daily Summary

Daily Weather History Graph

Daily Weather History Graph

Search for Another Location

Airport:

Trip Planner

Search our weather history database for the weather conditions in past years. The results will help you decide how hot, cold, wet, or windy it might be!

Date:

Astronomy

Feb. 15, 2013 Rise Set
Actual Time 7:22 AM CST 6:15 PM CST
Civil Twilight 6:56 AM CST 6:41 PM CST
Nautical Twilight 6:25 AM CST 7:12 PM CST
Astronomical Twilight 5:55 AM CST 7:42 PM CST
Moon 10:09 AM CST (2/15) No Moon Set
Length of Visible Light 11h 45m
Length of Day
10h 52m
Waxing Crescent, 30% of the Moon is Illuminated
Feb 15
Waxing Crescent
Feb 17
First Quarter
Feb 25
Full
Mar 4
Last Quarter
Mar 11
New

Hourly Weather History & Observations

Time (CST) Temp. Windchill Dew Point Humidity Pressure Visibility Wind Dir Wind Speed Gust Speed Precip Events Conditions
12:10 AM 37.4 °F 29.8 °F 24.8 °F 60% 30.31 in 10.0 mi North 11.5 mph - N/A   Overcast
12:30 AM 35.6 °F 27.1 °F 26.6 °F 70% 30.33 in 10.0 mi North 12.7 mph - N/A   Overcast
12:50 AM 35.6 °F 27.1 °F 24.8 °F 65% 30.33 in 10.0 mi North 12.7 mph - N/A   Overcast
1:10 AM 35.6 °F 27.1 °F 23.0 °F 60% 30.34 in 10.0 mi North 12.7 mph 17.3 mph N/A   Overcast
1:30 AM 33.8 °F 26.4 °F 23.0 °F 65% 30.35 in 10.0 mi NNE 9.2 mph - N/A   Overcast
1:50 AM 33.8 °F 26.4 °F 23.0 °F 65% 30.35 in 10.0 mi NNE 9.2 mph 16.1 mph N/A   Overcast
2:10 AM 33.8 °F 23.9 °F 21.2 °F 60% 30.35 in 10.0 mi North 15.0 mph 19.6 mph N/A   Overcast
2:30 AM 32.0 °F 20.1 °F 19.4 °F 60% 30.36 in 10.0 mi North 19.6 mph 23.0 mph N/A   Overcast
2:50 AM 32.0 °F 21.6 °F 19.4 °F 60% 30.36 in 10.0 mi North 15.0 mph 20.7 mph N/A   Overcast
3:10 AM 32.0 °F 21.6 °F 19.4 °F 60% 30.36 in 10.0 mi North 15.0 mph 20.7 mph N/A   Overcast
3:30 AM 28.4 °F 18.0 °F 19.4 °F 69% 30.36 in 10.0 mi North 12.7 mph - N/A   Mostly Cloudy
3:50 AM 28.4 °F 19.1 °F 19.4 °F 69% 30.36 in 10.0 mi North 10.4 mph - N/A   Clear
4:10 AM 28.4 °F 18.0 °F 19.4 °F 69% 30.37 in 10.0 mi North 12.7 mph - N/A   Clear
4:30 AM 28.4 °F 18.0 °F 19.4 °F 69% 30.37 in 10.0 mi North 12.7 mph - N/A   Clear
4:50 AM 26.6 °F 15.7 °F 17.6 °F 69% 30.38 in 10.0 mi North 12.7 mph - N/A   Clear
5:10 AM 26.6 °F 14.7 °F 17.6 °F 69% 30.38 in 10.0 mi North 15.0 mph 20.7 mph N/A   Clear
5:30 AM 26.6 °F 16.8 °F 17.6 °F 69% 30.39 in 10.0 mi North 10.4 mph - N/A   Clear
6:10 AM 26.6 °F 17.5 °F 17.6 °F 69% 30.39 in 10.0 mi North 9.2 mph - N/A   Clear
6:30 AM 24.8 °F 16.1 °F 17.6 °F 74% 30.40 in 10.0 mi North 8.1 mph - N/A   Clear
6:50 AM 24.8 °F 14.6 °F 17.6 °F 74% 30.41 in 10.0 mi NNW 10.4 mph - N/A   Clear
7:10 AM 24.8 °F 14.0 °F 17.6 °F 74% 30.42 in 10.0 mi NNW 11.5 mph - N/A   Clear
7:30 AM 24.8 °F 15.3 °F 17.6 °F 74% 30.42 in 10.0 mi North 9.2 mph - N/A   Clear
7:50 AM 24.8 °F 15.3 °F 17.6 °F 74% 30.43 in 10.0 mi North 9.2 mph - N/A   Clear
8:10 AM 24.8 °F 14.6 °F 17.6 °F 74% 30.43 in 10.0 mi North 10.4 mph - N/A   Clear
8:30 AM 26.6 °F 16.2 °F 17.6 °F 69% 30.44 in 10.0 mi North 11.5 mph - N/A   Clear
8:50 AM 28.4 °F 17.5 °F 17.6 °F 64% 30.44 in 10.0 mi North 13.8 mph - N/A   Clear
9:10 AM 28.4 °F 19.1 °F 19.4 °F 69% 30.45 in 10.0 mi North 10.4 mph - N/A   Clear
9:30 AM 28.4 °F 17.0 °F 19.4 °F 69% 30.45 in 10.0 mi North 15.0 mph - N/A   Clear
9:50 AM 30.2 °F 20.8 °F 17.6 °F 60% 30.44 in 10.0 mi North 11.5 mph - N/A   Clear
10:10 AM 32.0 °F 22.5 °F 19.4 °F 60% 30.44 in 10.0 mi North 12.7 mph 16.1 mph N/A   Clear
10:30 AM 32.0 °F 22.5 °F 19.4 °F 60% 30.43 in 10.0 mi NNE 12.7 mph - N/A   Clear
10:50 AM 32.0 °F 22.1 °F 19.4 °F 60% 30.44 in 10.0 mi North 13.8 mph - N/A   Clear
11:10 AM 33.8 °F 24.8 °F 19.4 °F 56% 30.43 in 10.0 mi NNE 12.7 mph - N/A   Clear
11:30 AM 35.6 °F 28.6 °F 19.4 °F 52% 30.43 in 10.0 mi North 9.2 mph - N/A   Clear
11:50 AM 35.6 °F 27.1 °F 19.4 °F 52% 30.42 in 10.0 mi North 12.7 mph 17.3 mph N/A   Clear
12:10 PM 37.4 °F 29.8 °F 19.4 °F 48% 30.42 in 10.0 mi North 11.5 mph - N/A   Clear
12:50 PM 37.4 °F 32.1 °F 17.6 °F 45% 30.40 in 10.0 mi North 6.9 mph - N/A   Clear
1:10 PM 39.2 °F 33.0 °F 19.4 °F 45% 30.38 in 10.0 mi North 9.2 mph - N/A   Clear
1:30 PM 39.2 °F 35.0 °F 19.4 °F 45% 30.37 in 10.0 mi NNW 5.8 mph - N/A   Clear
1:50 PM 39.2 °F - 17.6 °F 42% 30.36 in 10.0 mi Calm Calm - N/A   Clear
2:10 PM 41.0 °F 35.2 °F 19.4 °F 42% 30.37 in 10.0 mi NNW 9.2 mph 16.1 mph N/A   Scattered Clouds
2:30 PM 41.0 °F 37.1 °F 19.4 °F 42% 30.37 in 10.0 mi WNW 5.8 mph - N/A   Mostly Cloudy
2:50 PM 41.0 °F 35.2 °F 19.4 °F 42% 30.36 in 10.0 mi WNW 9.2 mph 19.6 mph N/A   Mostly Cloudy
3:10 PM 42.8 °F 36.2 °F 19.4 °F 39% 30.35 in 10.0 mi NW 12.7 mph 18.4 mph N/A   Mostly Cloudy
3:30 PM 41.0 °F 35.2 °F 19.4 °F 42% 30.34 in 10.0 mi NW 9.2 mph - N/A   Mostly Cloudy
3:50 PM 41.0 °F 34.7 °F 21.2 °F 45% 30.34 in 10.0 mi NW 10.4 mph - N/A   Mostly Cloudy
4:10 PM 41.0 °F 34.7 °F 21.2 °F 45% 30.34 in 10.0 mi NW 10.4 mph - N/A   Mostly Cloudy
4:30 PM 41.0 °F 39.0 °F 21.2 °F 45% 30.34 in 10.0 mi NW 3.5 mph - N/A   Partly Cloudy
4:50 PM 41.0 °F 35.8 °F 21.2 °F 45% 30.34 in 10.0 mi NNW 8.1 mph - N/A   Mostly Cloudy
5:10 PM 41.0 °F 36.4 °F 19.4 °F 42% 30.34 in 10.0 mi North 6.9 mph - N/A   Overcast
5:30 PM 41.0 °F 39.0 °F 19.4 °F 42% 30.33 in 10.0 mi NW 3.5 mph - N/A   Mostly Cloudy
5:50 PM 39.2 °F - 19.4 °F 45% 30.32 in 10.0 mi Calm Calm - N/A   Mostly Cloudy
9:10 PM 32.0 °F 23.6 °F 32.0 °F 100% 30.37 in 3.0 mi NNE 10.4 mph - 0.01 in Snow Light Snow
9:30 PM 32.0 °F 25.6 °F 32.0 °F 100% 30.39 in 1.5 mi North 6.9 mph - 0.06 in Snow Light Snow
9:50 PM 32.0 °F - 32.0 °F 100% 30.37 in 6.0 mi Calm Calm - 0.18 in Snow Light Snow
10:10 PM 32.0 °F - 32.0 °F 100% 30.37 in 8.0 mi Calm Calm - N/A   Mostly Cloudy
10:30 PM 30.2 °F 26.7 °F 30.2 °F 100% 30.38 in 0.8 mi WNW 3.5 mph - N/A   Overcast
10:50 PM 28.4 °F 21.2 °F 28.4 °F 100% 30.37 in 3.0 mi West 6.9 mph - N/A   Scattered Clouds
11:10 PM 28.4 °F 22.2 °F 28.4 °F 100% 30.38 in 2.5 mi West 5.8 mph - N/A   Clear
11:30 PM 28.4 °F 21.2 °F 28.4 °F 100% 30.38 in 4.0 mi West 6.9 mph - N/A   Clear
11:50 PM 28.4 °F 19.1 °F 28.4 °F 100% 30.40 in 9.0 mi NNW 10.4 mph - N/A   Partly Cloudy